Погода в Линшуе

Китай     18°30′11″N   110°02′20″E
темп.,
°C
ветер,
м/с
пор.,
м/с
влажн.,
%
обл.,
%
осадки,
мм/ч
давл.,
гПа
погр.,
м
6 мая, чт
чт623:00+26вюв238246 0.1 1013167
02:00+27св1178100 0.2 101366
05:00+27всв1177100 0.1 101274
08:00+28в2379100 0.1 1014500
11:00+30вюв4364100 0.1 10141057
14:00+31вюв5461100 0.1 10131012
17:00+29вюв5570100 0.0 1012782
20:00+26в348510 0.0 1013267
7 мая, пт
пт723:00+26всв3483100 0.1 1014352
02:00+27в2274100 0.1 1012371
05:00+25всв127856 0.0 1012271
08:00+27св226858 0.0 1014668
11:00+31юв4353100 0.0 10141066
14:00+31ююв535597 0.0 10111024
17:00+29юв44610 0.0 1010807
20:00+26в22783 0.0 1011208
8 мая, сб
сб823:00+25в128335 0.0 1012204
02:00+24ссз11875 0.0 101179
05:00+23ссз2292100 0.0 101050
08:00+26с117999 0.0 1012238
11:00+31ююв325376 0.0 1012934
14:00+31ююв535377 0.0 1010997
17:00+29ююв445996 0.0 1008690
20:00+25юв227940 0.0 1009165
9 мая, вс
вс923:00+24з01855 0.0 1011179
02:00+23зсз11885 0.0 1009108
05:00+22ссз119131 0.0 100941
08:00+26з1179100 0.0 1010288
11:00+30ю335976 0.0 1010890
14:00+31ю55585 0.0 1008879
17:00+30ю44624 0.0 1007744
20:00+26ю23863 0.0 1007170
10 мая, пн
пн1023:00+25юз128915 0.0 1009203
02:00+26зюз238963 0.1 1007181
05:00+26юз3588100 0.2 1007270
08:00+28ююз457558 0.3 1008877
11:00+31ююз66615 0.0 10091064
14:00+31ю67620 0.0 10071001
17:00+30ююз55674 0.0 1006887
20:00+27ю348910 0.0 1006210